GOES 14 [B]

Last updated on Thu Dec 28 2023 00:02:22 GMT+0000 (Coordinated Universal Time)

1 35491U 09033A 23361.61094670 -.00000056 00000+0 00000+0 0 9995 2 35491 0.1280 249.6779 0000698 349.4214 328.0590 1.00272207 53061
UTC large
Height (km)
Speed (km/s)
/
Latitude / Longitude
Inclination (degrees)
Orbital Period (minutes)
Azimuth
Elevation
Range (km)
Doppler Factor

Next 0 passes for location: London (51.5072 / 0.1276)

Sorry there are no passes over London.